OBJECT G (43186 NORAD) Tracking and Keplerian Element Data

This shows tracking and keplerian element data for the satellite.

Feedback or suggestion? Click here.




ElementValue
Catalog43186
NameOBJECT G
Epoch Orbit2489
Epoch Day198.77989643
Epoch Year2018
RAAN106.8607
Inclination97.7232
Eccentricity0.0012533
Argument of Perigee53.9888
Mean Anonmoly306.2493
Mean Motion14.96473876
Decay Rate-6.1E-07
L11 43186U 18014G 18198.77989643 -.00000061 00000-0 -22113-6 0 9990
L22 43186 97.7232 106.8607 0012533 53.9888 306.2493 14.96473876 24892

Live tracking and technical data element details for OBJECT G (NORAD 43186). OBJECT G can be tracked NOW for your location showing map with azimuth and elevation plus other details from your city location.

Track the satellite on the map from your city or location and see movement details for azimuth, elevation, latitude, longitude, range, height, and movement on the map or in text.







IsCatalogInMostPopularTable: catalog: 43186, numindb: 74
Update: records affected: 1



GetName: 43186 OBJECT G

Hit Count: updated at: Thu, 19 Jul 2018 21:20:38 GMT